Time,TemperatureF,DewpointF,PressureIn,WindDirection,WindDirectionDegrees,WindSpeedMPH,WindSpeedGustMPH,Humidity,HourlyPrecipIn,Conditions,Clouds,dailyrainin,SoftwareType,DateUTC
2013-01-26 00:00:00,6.1,-0.4,30.25,East,90,0.0,2.0,74,0.00,,,0.00,WUHU216DAVISVP2,2013-01-26 06:00:00,
2013-01-26 00:03:00,6.1,-0.4,30.25,East,86,0.0,2.0,74,0.00,,,0.00,WUHU216DAVISVP2,2013-01-26 06:03:00,
2013-01-26 00:08:00,6.0,-0.5,30.25,SE,131,0.0,2.0,74,0.00,,,0.00,WUHU216DAVISVP2,2013-01-26 06:08:00,
2013-01-26 00:13:00,5.9,-0.3,30.25,ESE,121,0.0,2.0,75,0.00,,,0.00,WUHU216DAVISVP2,2013-01-26 06:13:00,
2013-01-26 00:18:00,5.8,-0.4,30.25,ESE,117,0.0,2.0,75,0.00,,,0.00,WUHU216DAVISVP2,2013-01-26 06:18:00,
2013-01-26 00:23:00,5.7,-0.2,30.25,ESE,108,0.0,2.0,76,0.00,,,0.00,WUHU216DAVISVP2,2013-01-26 06:23:00,
2013-01-26 00:28:00,5.6,-0.3,30.25,ESE,107,0.0,1.0,76,0.00,,,0.00,WUHU216DAVISVP2,2013-01-26 06:28:00,
2013-01-26 00:30:00,5.5,-0.4,30.25,ESE,113,0.0,2.0,76,0.00,,,0.00,WUHU216DAVISVP2,2013-01-26 06:30:00,
2013-01-26 00:33:00,5.5,-0.4,30.25,East,97,0.0,1.0,76,0.00,,,0.00,WUHU216DAVISVP2,2013-01-26 06:33:00,
2013-01-26 00:38:00,5.4,-0.5,30.25,East,94,0.0,1.0,76,0.00,,,0.00,WUHU216DAVISVP2,2013-01-26 06:38:00,
2013-01-26 00:43:00,5.3,-0.6,30.25,East,98,0.0,1.0,76,0.00,,,0.00,WUHU216DAVISVP2,2013-01-26 06:43:00,
2013-01-26 00:48:00,5.2,-0.4,30.25,East,98,0.0,1.0,77,0.00,,,0.00,WUHU216DAVISVP2,2013-01-26 06:48:00,
2013-01-26 00:53:00,5.2,-0.2,30.24,ESE,104,0.0,1.0,78,0.00,,,0.00,WUHU216DAVISVP2,2013-01-26 06:53:00,
2013-01-26 00:58:00,5.2,-0.2,30.24,ESE,103,0.0,1.0,78,0.00,,,0.00,WUHU216DAVISVP2,2013-01-26 06:58:00,
2013-01-26 01:00:00,5.2,-0.2,30.24,ESE,113,0.0,1.0,78,0.00,,,0.00,WUHU216DAVISVP2,2013-01-26 07:00:00,
2013-01-26 01:03:00,5.1,-0.5,30.25,ENE,70,0.0,1.0,77,0.00,,,0.00,WUHU216DAVISVP2,2013-01-26 07:03:00,
2013-01-26 01:08:00,5.1,-0.3,30.25,East,98,0.0,1.0,78,0.00,,,0.00,WUHU216DAVISVP2,2013-01-26 07:08:00,
2013-01-26 01:13:00,5.0,-0.3,30.25,East,88,0.0,1.0,78,0.00,,,0.00,WUHU216DAVISVP2,2013-01-26 07:13:00,
2013-01-26 01:18:00,5.0,-0.3,30.25,East,88,0.0,1.0,78,0.00,,,0.00,WUHU216DAVISVP2,2013-01-26 07:18:00,
2013-01-26 01:23:00,5.0,-0.4,30.25,NE,53,0.0,1.0,78,0.00,,,0.00,WUHU216DAVISVP2,2013-01-26 07:23:00,
2013-01-26 01:28:00,5.0,-0.1,30.25,East,91,0.0,1.0,79,0.00,,,0.00,WUHU216DAVISVP2,2013-01-26 07:28:00,
2013-01-26 01:30:00,5.0,-0.1,30.24,ENE,68,0.0,2.0,79,0.00,,,0.00,WUHU216DAVISVP2,2013-01-26 07:30:00,
2013-01-26 01:33:00,5.0,-0.4,30.25,ENE,69,0.0,2.0,78,0.00,,,0.00,WUHU216DAVISVP2,2013-01-26 07:33:00,
2013-01-26 01:38:00,5.0,-0.4,30.24,ESE,105,0.0,2.0,78,0.00,,,0.00,WUHU216DAVISVP2,2013-01-26 07:38:00,
2013-01-26 01:43:00,4.9,-0.7,30.25,ENE,77,0.0,3.0,77,0.00,,,0.00,WUHU216DAVISVP2,2013-01-26 07:43:00,
2013-01-26 01:48:00,4.9,-0.7,30.25,ESE,105,0.0,3.0,77,0.00,,,0.00,WUHU216DAVISVP2,2013-01-26 07:48:00,
2013-01-26 01:53:00,4.9,-0.7,30.24,ENE,62,0.0,3.0,77,0.00,,,0.00,WUHU216DAVISVP2,2013-01-26 07:53:00,
2013-01-26 01:58:00,4.9,-0.7,30.24,ENE,63,0.0,3.0,77,0.00,,,0.00,WUHU216DAVISVP2,2013-01-26 07:58:00,
2013-01-26 02:00:00,4.9,-0.7,30.24,ENE,68,0.0,3.0,77,0.00,,,0.00,WUHU216DAVISVP2,2013-01-26 08:00:00,
2013-01-26 02:03:00,4.9,-1.0,30.24,ESE,113,0.0,3.0,76,0.00,,,0.00,WUHU216DAVISVP2,2013-01-26 08:03:00,
2013-01-26 02:08:00,4.9,-1.0,30.24,ESE,105,0.0,2.0,76,0.00,,,0.00,WUHU216DAVISVP2,2013-01-26 08:08:00,
2013-01-26 02:13:00,4.9,-1.3,30.24,ESE,103,0.0,2.0,75,0.00,,,0.00,WUHU216DAVISVP2,2013-01-26 08:13:00,
2013-01-26 02:18:00,4.8,-1.4,30.24,ENE,68,0.0,2.0,75,0.00,,,0.00,WUHU216DAVISVP2,2013-01-26 08:18:00,
2013-01-26 02:23:00,4.8,-1.1,30.24,ESE,117,0.0,2.0,76,0.00,,,0.00,WUHU216DAVISVP2,2013-01-26 08:23:00,
2013-01-26 02:28:00,4.7,-1.2,30.24,ESE,107,0.0,2.0,76,0.00,,,0.00,WUHU216DAVISVP2,2013-01-26 08:28:00,
2013-01-26 02:30:00,4.7,-1.2,30.24,ENE,68,0.0,2.0,76,0.00,,,0.00,WUHU216DAVISVP2,2013-01-26 08:30:00,
2013-01-26 02:33:00,4.6,-1.3,30.24,ESE,108,0.0,2.0,76,0.00,,,0.00,WUHU216DAVISVP2,2013-01-26 08:33:00,
2013-01-26 02:38:00,4.6,-1.3,30.24,ESE,118,0.0,1.0,76,0.00,,,0.00,WUHU216DAVISVP2,2013-01-26 08:38:00,
2013-01-26 02:43:00,4.6,-1.3,30.25,ENE,65,1.0,2.0,76,0.00,,,0.00,WUHU216DAVISVP2,2013-01-26 08:43:00,
2013-01-26 02:48:00,4.6,-1.3,30.25,ESE,103,0.0,2.0,76,0.00,,,0.00,WUHU216DAVISVP2,2013-01-26 08:48:00,
2013-01-26 02:53:00,4.5,-1.4,30.24,ENE,68,0.0,2.0,76,0.00,,,0.00,WUHU216DAVISVP2,2013-01-26 08:53:00,
2013-01-26 02:58:00,4.5,-1.4,30.24,ESE,115,0.0,2.0,76,0.00,,,0.00,WUHU216DAVISVP2,2013-01-26 08:58:00,
2013-01-26 03:00:00,4.4,-1.8,30.24,ENE,68,0.0,2.0,75,0.00,,,0.00,WUHU216DAVISVP2,2013-01-26 09:00:00,
2013-01-26 03:03:00,4.4,-1.5,30.24,ESE,115,0.0,2.0,76,0.00,,,0.00,WUHU216DAVISVP2,2013-01-26 09:03:00,
2013-01-26 03:08:00,4.4,-1.5,30.24,ESE,108,0.0,2.0,76,0.00,,,0.00,WUHU216DAVISVP2,2013-01-26 09:08:00,
2013-01-26 03:13:00,4.3,-1.6,30.24,ESE,103,0.0,1.0,76,0.00,,,0.00,WUHU216DAVISVP2,2013-01-26 09:13:00,
2013-01-26 03:18:00,4.2,-1.7,30.23,ESE,110,0.0,1.0,76,0.00,,,0.00,WUHU216DAVISVP2,2013-01-26 09:18:00,
2013-01-26 03:23:00,4.2,-1.7,30.23,ESE,103,0.0,2.0,76,0.00,,,0.00,WUHU216DAVISVP2,2013-01-26 09:23:00,
2013-01-26 03:28:00,4.2,-1.7,30.23,SE,127,0.0,2.0,76,0.00,,,0.00,WUHU216DAVISVP2,2013-01-26 09:28:00,
2013-01-26 03:30:00,4.2,-1.7,30.23,ESE,113,0.0,2.0,76,0.00,,,0.00,WUHU216DAVISVP2,2013-01-26 09:30:00,
2013-01-26 03:33:00,4.2,-1.7,30.23,SE,128,0.0,2.0,76,0.00,,,0.00,WUHU216DAVISVP2,2013-01-26 09:33:00,
2013-01-26 03:38:00,4.2,-1.7,30.23,ESE,108,0.0,2.0,76,0.00,,,0.00,WUHU216DAVISVP2,2013-01-26 09:38:00,
2013-01-26 03:43:00,4.2,-1.7,30.23,ESE,105,0.0,2.0,76,0.00,,,0.00,WUHU216DAVISVP2,2013-01-26 09:43:00,
2013-01-26 03:48:00,4.2,-1.7,30.23,East,93,0.0,2.0,76,0.00,,,0.00,WUHU216DAVISVP2,2013-01-26 09:48:00,
2013-01-26 03:53:00,4.2,-1.7,30.23,ESE,119,0.0,2.0,76,0.00,,,0.00,WUHU216DAVISVP2,2013-01-26 09:53:00,
2013-01-26 03:58:00,4.1,-1.8,30.22,East,98,0.0,2.0,76,0.00,,,0.00,WUHU216DAVISVP2,2013-01-26 09:58:00,
2013-01-26 04:00:00,4.1,-1.8,30.23,ESE,113,0.0,2.0,76,0.00,,,0.00,WUHU216DAVISVP2,2013-01-26 10:00:00,
2013-01-26 04:03:00,4.1,-1.8,30.23,East,79,1.0,4.0,76,0.00,,,0.00,WUHU216DAVISVP2,2013-01-26 10:03:00,
2013-01-26 04:08:00,4.1,-1.8,30.23,ESE,109,0.0,4.0,76,0.00,,,0.00,WUHU216DAVISVP2,2013-01-26 10:08:00,
2013-01-26 04:13:00,4.1,-1.5,30.23,ENE,70,0.0,4.0,77,0.00,,,0.00,WUHU216DAVISVP2,2013-01-26 10:13:00,
2013-01-26 04:18:00,4.0,-1.6,30.23,ENE,59,1.0,6.0,77,0.00,,,0.00,WUHU216DAVISVP2,2013-01-26 10:18:00,
2013-01-26 04:23:00,4.0,-1.6,30.22,ESE,111,0.0,6.0,77,0.00,,,0.00,WUHU216DAVISVP2,2013-01-26 10:23:00,
2013-01-26 04:28:00,4.0,-1.6,30.22,ESE,111,0.0,6.0,77,0.00,,,0.00,WUHU216DAVISVP2,2013-01-26 10:28:00,
2013-01-26 04:30:00,4.0,-1.6,30.22,ESE,113,0.0,6.0,77,0.00,,,0.00,WUHU216DAVISVP2,2013-01-26 10:30:00,
2013-01-26 04:33:00,4.0,-1.6,30.22,ESE,123,0.0,6.0,77,0.00,,,0.00,WUHU216DAVISVP2,2013-01-26 10:33:00,
2013-01-26 04:38:00,3.8,-1.8,30.22,SE,134,0.0,3.0,77,0.00,,,0.00,WUHU216DAVISVP2,2013-01-26 10:38:00,
2013-01-26 04:43:00,3.8,-1.8,30.23,ESE,102,0.0,3.0,77,0.00,,,0.00,WUHU216DAVISVP2,2013-01-26 10:43:00,
2013-01-26 04:48:00,3.8,-1.8,30.22,ESE,103,1.0,3.0,77,0.00,,,0.00,WUHU216DAVISVP2,2013-01-26 10:48:00,
2013-01-26 04:53:00,3.8,-1.8,30.22,ESE,122,0.0,3.0,77,0.00,,,0.00,WUHU216DAVISVP2,2013-01-26 10:53:00,
2013-01-26 04:58:00,3.8,-1.8,30.22,SE,128,0.0,2.0,77,0.00,,,0.00,WUHU216DAVISVP2,2013-01-26 10:58:00,
2013-01-26 05:00:00,3.7,-1.9,30.22,ESE,113,0.0,3.0,77,0.00,,,0.00,WUHU216DAVISVP2,2013-01-26 11:00:00,
2013-01-26 05:03:00,3.7,-1.9,30.22,ESE,108,0.0,2.0,77,0.00,,,0.00,WUHU216DAVISVP2,2013-01-26 11:03:00,
2013-01-26 05:08:00,3.8,-1.8,30.22,East,100,0.0,1.0,77,0.00,,,0.00,WUHU216DAVISVP2,2013-01-26 11:08:00,
2013-01-26 05:13:00,3.7,-1.9,30.22,ESE,103,0.0,2.0,77,0.00,,,0.00,WUHU216DAVISVP2,2013-01-26 11:13:00,
2013-01-26 05:18:00,3.6,-2.0,30.22,East,101,0.0,2.0,77,0.00,,,0.00,WUHU216DAVISVP2,2013-01-26 11:18:00,
2013-01-26 05:23:00,3.6,-2.0,30.21,SE,124,0.0,2.0,77,0.00,,,0.00,WUHU216DAVISVP2,2013-01-26 11:23:00,
2013-01-26 05:28:00,3.5,-2.1,30.21,ESE,115,1.0,2.0,77,0.00,,,0.00,WUHU216DAVISVP2,2013-01-26 11:28:00,
2013-01-26 05:30:00,3.5,-2.1,30.21,ESE,113,0.0,2.0,77,0.00,,,0.00,WUHU216DAVISVP2,2013-01-26 11:30:00,
2013-01-26 05:33:00,3.5,-1.8,30.21,ESE,106,0.0,1.0,78,0.00,,,0.00,WUHU216DAVISVP2,2013-01-26 11:33:00,
2013-01-26 05:38:00,3.4,-1.9,30.21,ESE,122,0.0,1.0,78,0.00,,,0.00,WUHU216DAVISVP2,2013-01-26 11:38:00,
2013-01-26 05:43:00,3.4,-1.9,30.20,ESE,118,1.0,4.0,78,0.00,,,0.00,WUHU216DAVISVP2,2013-01-26 11:43:00,
2013-01-26 05:48:00,3.5,-1.8,30.19,South,191,0.0,4.0,78,0.00,,,0.00,WUHU216DAVISVP2,2013-01-26 11:48:00,
2013-01-26 05:53:00,3.5,-1.8,30.19,ESE,116,0.0,4.0,78,0.00,,,0.00,WUHU216DAVISVP2,2013-01-26 11:53:00,
2013-01-26 05:58:00,3.5,-1.8,30.19,ESE,104,1.0,4.0,78,0.00,,,0.00,WUHU216DAVISVP2,2013-01-26 11:58:00,
2013-01-26 06:00:00,3.5,-1.8,30.19,ESE,113,0.0,4.0,78,0.00,,,0.00,WUHU216DAVISVP2,2013-01-26 12:00:00,
2013-01-26 06:03:00,3.5,-1.8,30.19,SE,136,1.0,3.0,78,0.00,,,0.00,WUHU216DAVISVP2,2013-01-26 12:03:00,
2013-01-26 06:08:00,3.6,-2.0,30.19,SSE,151,0.0,2.0,77,0.00,,,0.00,WUHU216DAVISVP2,2013-01-26 12:08:00,
2013-01-26 06:13:00,3.6,-2.0,30.19,SSE,155,0.0,2.0,77,0.00,,,0.00,WUHU216DAVISVP2,2013-01-26 12:13:00,
2013-01-26 06:18:00,3.6,-2.0,30.19,SE,139,2.0,2.0,77,0.00,,,0.00,WUHU216DAVISVP2,2013-01-26 12:18:00,
2013-01-26 06:23:00,3.7,-1.9,30.19,SE,137,1.0,2.0,77,0.00,,,0.00,WUHU216DAVISVP2,2013-01-26 12:23:00,
2013-01-26 06:28:00,3.7,-1.9,30.19,SE,136,1.0,2.0,77,0.00,,,0.00,WUHU216DAVISVP2,2013-01-26 12:28:00,
2013-01-26 06:30:00,3.7,-1.9,30.19,SE,135,0.0,2.0,77,0.00,,,0.00,WUHU216DAVISVP2,2013-01-26 12:30:00,
2013-01-26 06:33:00,3.7,-1.9,30.20,SE,136,0.0,2.0,77,0.00,,,0.00,WUHU216DAVISVP2,2013-01-26 12:33:00,
2013-01-26 06:38:00,3.7,-1.9,30.20,SE,125,1.0,2.0,77,0.00,,,0.00,WUHU216DAVISVP2,2013-01-26 12:38:00,
2013-01-26 06:43:00,3.8,-1.5,30.19,ESE,107,0.0,2.0,78,0.00,,,0.00,WUHU216DAVISVP2,2013-01-26 12:43:00,
2013-01-26 06:48:00,3.9,-1.4,30.19,East,91,0.0,2.0,78,0.00,,,0.00,WUHU216DAVISVP2,2013-01-26 12:48:00,
2013-01-26 06:53:00,3.8,-1.5,30.19,East,99,0.0,2.0,78,0.00,,,0.00,WUHU216DAVISVP2,2013-01-26 12:53:00,
2013-01-26 06:58:00,3.8,-1.5,30.19,SE,129,0.0,2.0,78,0.00,,,0.00,WUHU216DAVISVP2,2013-01-26 12:58:00,
2013-01-26 07:00:00,3.8,-1.5,30.19,ESE,113,0.0,2.0,78,0.00,,,0.00,WUHU216DAVISVP2,2013-01-26 13:00:00,
2013-01-26 07:03:00,3.8,-1.5,30.19,ESE,103,0.0,2.0,78,0.00,,,0.00,WUHU216DAVISVP2,2013-01-26 13:03:00,
2013-01-26 07:08:00,3.9,-1.4,30.19,ESE,121,0.0,2.0,78,0.00,,,0.00,WUHU216DAVISVP2,2013-01-26 13:08:00,
2013-01-26 07:13:00,3.9,-1.4,30.19,ESE,117,0.0,2.0,78,0.00,,,0.00,WUHU216DAVISVP2,2013-01-26 13:13:00,
2013-01-26 07:18:00,3.9,-1.4,30.19,ESE,113,0.0,2.0,78,0.00,,,0.00,WUHU216DAVISVP2,2013-01-26 13:18:00,
2013-01-26 07:23:00,3.9,-1.2,30.19,SE,129,0.0,2.0,79,0.00,,,0.00,WUHU216DAVISVP2,2013-01-26 13:23:00,
2013-01-26 07:28:00,4.0,-1.3,30.19,ESE,119,1.0,2.0,78,0.00,,,0.00,WUHU216DAVISVP2,2013-01-26 13:28:00,
2013-01-26 07:30:00,4.0,-1.3,30.19,ESE,113,0.0,2.0,78,0.00,,,0.00,WUHU216DAVISVP2,2013-01-26 13:30:00,
2013-01-26 07:33:00,4.0,-1.3,30.18,SE,138,0.0,2.0,78,0.00,,,0.00,WUHU216DAVISVP2,2013-01-26 13:33:00,
2013-01-26 07:38:00,4.1,-1.0,30.18,ESE,115,0.0,2.0,79,0.00,,,0.00,WUHU216DAVISVP2,2013-01-26 13:38:00,
2013-01-26 07:43:00,4.3,-0.8,30.18,SE,125,0.0,2.0,79,0.00,,,0.00,WUHU216DAVISVP2,2013-01-26 13:43:00,
2013-01-26 07:48:00,4.4,-0.7,30.18,ESE,105,0.0,2.0,79,0.00,,,0.00,WUHU216DAVISVP2,2013-01-26 13:48:00,
2013-01-26 07:53:00,4.5,-0.6,30.18,SE,143,0.0,2.0,79,0.00,,,0.00,WUHU216DAVISVP2,2013-01-26 13:53:00,
2013-01-26 07:58:00,4.5,-0.6,30.18,SE,125,1.0,3.0,79,0.00,,,0.00,WUHU216DAVISVP2,2013-01-26 13:58:00,
2013-01-26 08:00:00,4.5,-0.6,30.18,ESE,113,0.0,3.0,79,0.00,,,0.00,WUHU216DAVISVP2,2013-01-26 14:00:00,
2013-01-26 08:03:00,4.6,-0.5,30.18,ESE,121,0.0,3.0,79,0.00,,,0.00,WUHU216DAVISVP2,2013-01-26 14:03:00,
2013-01-26 08:08:00,4.6,-0.5,30.18,SW,216,0.0,3.0,79,0.00,,,0.00,WUHU216DAVISVP2,2013-01-26 14:08:00,
2013-01-26 08:13:00,4.7,-0.4,30.18,ESE,122,0.0,3.0,79,0.00,,,0.00,WUHU216DAVISVP2,2013-01-26 14:13:00,
2013-01-26 08:18:00,4.8,-0.3,30.17,SE,146,0.0,2.0,79,0.00,,,0.00,WUHU216DAVISVP2,2013-01-26 14:18:00,
2013-01-26 08:23:00,4.9,-0.2,30.17,ESE,117,1.0,2.0,79,0.00,,,0.00,WUHU216DAVISVP2,2013-01-26 14:23:00,
2013-01-26 08:28:00,5.2,0.1,30.17,SE,140,1.0,2.0,79,0.00,,,0.00,WUHU216DAVISVP2,2013-01-26 14:28:00,
2013-01-26 08:30:00,5.2,-0.2,30.17,ESE,113,0.0,2.0,78,0.00,,,0.00,WUHU216DAVISVP2,2013-01-26 14:30:00,
2013-01-26 08:33:00,5.4,0.3,30.17,SE,127,0.0,2.0,79,0.00,,,0.00,WUHU216DAVISVP2,2013-01-26 14:33:00,
2013-01-26 08:38:00,5.7,0.3,30.17,ESE,121,1.0,2.0,78,0.00,,,0.00,WUHU216DAVISVP2,2013-01-26 14:38:00,
2013-01-26 08:43:00,6.0,0.6,30.17,SE,134,1.0,3.0,78,0.00,,,0.00,WUHU216DAVISVP2,2013-01-26 14:43:00,
2013-01-26 08:48:00,6.3,0.6,30.17,ESE,106,1.0,3.0,77,0.00,,,0.00,WUHU216DAVISVP2,2013-01-26 14:48:00,
2013-01-26 08:53:00,6.7,1.0,30.17,ESE,120,2.0,3.0,77,0.00,,,0.00,WUHU216DAVISVP2,2013-01-26 14:53:00,
2013-01-26 08:58:00,7.1,1.2,30.17,ESE,103,2.0,3.0,76,0.00,,,0.00,WUHU216DAVISVP2,2013-01-26 14:58:00,
2013-01-26 09:00:00,7.2,1.2,30.16,SE,135,1.0,3.0,76,0.00,,,0.00,WUHU216DAVISVP2,2013-01-26 15:00:00,
2013-01-26 09:03:00,7.6,1.6,30.16,SE,127,1.0,4.0,76,0.00,,,0.00,WUHU216DAVISVP2,2013-01-26 15:03:00,
2013-01-26 09:08:00,8.1,1.8,30.17,SSE,155,1.0,4.0,75,0.00,,,0.00,WUHU216DAVISVP2,2013-01-26 15:08:00,
2013-01-26 09:13:00,8.4,1.8,30.16,SSE,151,2.0,4.0,74,0.00,,,0.00,WUHU216DAVISVP2,2013-01-26 15:13:00,
2013-01-26 09:18:00,8.9,2.6,30.16,SSE,158,3.0,4.0,75,0.00,,,0.00,WUHU216DAVISVP2,2013-01-26 15:18:00,
2013-01-26 09:23:00,9.3,2.4,30.16,SE,135,2.0,4.0,73,0.00,,,0.00,WUHU216DAVISVP2,2013-01-26 15:23:00,
2013-01-26 09:28:00,9.6,2.7,30.16,SE,140,2.0,5.0,73,0.00,,,0.00,WUHU216DAVISVP2,2013-01-26 15:28:00,
2013-01-26 09:30:00,9.7,2.5,30.16,SE,135,1.0,5.0,72,0.00,,,0.00,WUHU216DAVISVP2,2013-01-26 15:30:00,
2013-01-26 09:33:00,9.9,3.0,30.16,SE,136,1.0,5.0,73,0.00,,,0.00,WUHU216DAVISVP2,2013-01-26 15:33:00,
2013-01-26 09:38:00,10.2,3.0,30.16,SE,141,2.0,5.0,72,0.00,,,0.00,WUHU216DAVISVP2,2013-01-26 15:38:00,
2013-01-26 09:43:00,10.7,3.8,30.16,ESE,118,3.0,5.0,73,0.00,,,0.00,WUHU216DAVISVP2,2013-01-26 15:43:00,
2013-01-26 09:48:00,11.1,3.9,30.16,ESE,120,1.0,4.0,72,0.00,,,0.00,WUHU216DAVISVP2,2013-01-26 15:48:00,
2013-01-26 09:53:00,11.3,3.8,30.15,SE,136,1.0,4.0,71,0.00,,,0.00,WUHU216DAVISVP2,2013-01-26 15:53:00,
2013-01-26 09:58:00,11.7,4.2,30.15,SE,136,2.0,4.0,71,0.00,,,0.00,WUHU216DAVISVP2,2013-01-26 15:58:00,
2013-01-26 10:00:00,11.8,4.2,30.16,SE,135,1.0,4.0,71,0.00,,,0.00,WUHU216DAVISVP2,2013-01-26 16:00:00,
2013-01-26 10:03:00,12.1,4.5,30.16,SSE,152,2.0,4.0,71,0.00,,,0.00,WUHU216DAVISVP2,2013-01-26 16:03:00,
2013-01-26 10:08:00,12.5,4.9,30.15,ESE,109,1.0,4.0,71,0.00,,,0.00,WUHU216DAVISVP2,2013-01-26 16:08:00,
2013-01-26 10:13:00,13.0,5.1,30.15,ESE,116,2.0,4.0,70,0.00,,,0.00,WUHU216DAVISVP2,2013-01-26 16:13:00,
2013-01-26 10:18:00,13.4,5.5,30.15,East,100,3.0,4.0,70,0.00,,,0.00,WUHU216DAVISVP2,2013-01-26 16:18:00,
2013-01-26 10:23:00,13.9,6.0,30.14,SE,145,1.0,4.0,70,0.00,,,0.00,WUHU216DAVISVP2,2013-01-26 16:23:00,
2013-01-26 10:28:00,14.4,6.1,30.15,ESE,123,2.0,4.0,69,0.00,,,0.00,WUHU216DAVISVP2,2013-01-26 16:28:00,
2013-01-26 10:30:00,14.5,6.2,30.14,SE,135,1.0,4.0,69,0.00,,,0.00,WUHU216DAVISVP2,2013-01-26 16:30:00,
2013-01-26 10:33:00,14.7,6.1,30.15,SE,145,3.0,6.0,68,0.00,,,0.00,WUHU216DAVISVP2,2013-01-26 16:33:00,
2013-01-26 10:38:00,15.2,6.6,30.15,ESE,113,2.0,6.0,68,0.00,,,0.00,WUHU216DAVISVP2,2013-01-26 16:38:00,
2013-01-26 10:43:00,15.7,6.7,30.15,SSW,195,1.0,6.0,67,0.00,,,0.00,WUHU216DAVISVP2,2013-01-26 16:43:00,
2013-01-26 10:48:00,16.2,7.2,30.14,SE,136,1.0,6.0,67,0.00,,,0.00,WUHU216DAVISVP2,2013-01-26 16:48:00,
2013-01-26 10:53:00,16.6,7.3,30.14,SSE,160,3.0,4.0,66,0.00,,,0.00,WUHU216DAVISVP2,2013-01-26 16:53:00,
2013-01-26 10:58:00,17.0,7.9,30.14,ESE,117,2.0,5.0,67,0.00,,,0.00,WUHU216DAVISVP2,2013-01-26 16:58:00,
2013-01-26 11:00:00,17.2,7.8,30.14,SE,135,1.0,6.0,66,0.00,,,0.00,WUHU216DAVISVP2,2013-01-26 17:00:00,
2013-01-26 11:03:00,17.4,8.0,30.14,SE,132,3.0,5.0,66,0.00,,,0.00,WUHU216DAVISVP2,2013-01-26 17:03:00,
2013-01-26 11:08:00,17.7,8.3,30.14,SE,128,1.0,5.0,66,0.00,,,0.00,WUHU216DAVISVP2,2013-01-26 17:08:00,
2013-01-26 11:13:00,18.1,8.7,30.14,SE,134,3.0,5.0,66,0.00,,,0.00,WUHU216DAVISVP2,2013-01-26 17:13:00,
2013-01-26 11:18:00,18.5,9.1,30.14,ESE,109,1.0,5.0,66,0.00,,,0.00,WUHU216DAVISVP2,2013-01-26 17:18:00,
2013-01-26 11:23:00,19.3,9.8,30.14,SE,127,4.0,8.0,66,0.00,,,0.00,WUHU216DAVISVP2,2013-01-26 17:23:00,
2013-01-26 11:28:00,19.5,10.0,30.13,SE,140,2.0,8.0,66,0.00,,,0.00,WUHU216DAVISVP2,2013-01-26 17:28:00,
2013-01-26 11:30:00,19.5,10.0,30.13,SE,135,2.0,8.0,66,0.00,,,0.00,WUHU216DAVISVP2,2013-01-26 17:30:00,
2013-01-26 11:33:00,19.5,10.0,30.13,SE,138,3.0,8.0,66,0.00,,,0.00,WUHU216DAVISVP2,2013-01-26 17:33:00,
2013-01-26 11:38:00,19.8,10.3,30.13,SSE,152,3.0,8.0,66,0.00,,,0.00,WUHU216DAVISVP2,2013-01-26 17:38:00,
2013-01-26 11:43:00,19.9,10.1,30.13,SE,141,4.0,7.0,65,0.00,,,0.00,WUHU216DAVISVP2,2013-01-26 17:43:00,
2013-01-26 11:48:00,19.9,10.4,30.12,SE,139,2.0,7.0,66,0.00,,,0.00,WUHU216DAVISVP2,2013-01-26 17:48:00,
2013-01-26 11:53:00,20.0,10.5,30.12,SE,130,2.0,7.0,66,0.00,,,0.00,WUHU216DAVISVP2,2013-01-26 17:53:00,
2013-01-26 11:58:00,20.1,10.9,30.11,SE,133,2.0,7.0,67,0.00,,,0.00,WUHU216DAVISVP2,2013-01-26 17:58:00,
2013-01-26 12:00:00,20.2,11.0,30.11,SE,135,2.0,7.0,67,0.00,,,0.00,WUHU216DAVISVP2,2013-01-26 18:00:00,
2013-01-26 12:03:00,20.3,11.1,30.11,SE,134,3.0,6.0,67,0.00,,,0.00,WUHU216DAVISVP2,2013-01-26 18:03:00,
2013-01-26 12:08:00,20.6,11.8,30.10,SE,131,2.0,7.0,68,0.00,,,0.00,WUHU216DAVISVP2,2013-01-26 18:08:00,
2013-01-26 12:13:00,20.9,12.0,30.10,SE,138,2.0,7.0,68,0.00,,,0.00,WUHU216DAVISVP2,2013-01-26 18:13:00,
2013-01-26 12:18:00,21.2,12.3,30.09,SE,146,3.0,7.0,68,0.00,,,0.00,WUHU216DAVISVP2,2013-01-26 18:18:00,
2013-01-26 12:23:00,21.7,13.1,30.09,SE,137,2.0,7.0,69,0.00,,,0.00,WUHU216DAVISVP2,2013-01-26 18:23:00,
2013-01-26 12:28:00,22.1,13.5,30.08,SSE,149,3.0,6.0,69,0.00,,,0.00,WUHU216DAVISVP2,2013-01-26 18:28:00,
2013-01-26 12:30:00,22.1,13.1,30.09,SE,135,2.0,7.0,68,0.00,,,0.00,WUHU216DAVISVP2,2013-01-26 18:30:00,
2013-01-26 12:33:00,22.4,13.8,30.08,South,191,3.0,6.0,69,0.00,,,0.00,WUHU216DAVISVP2,2013-01-26 18:33:00,
2013-01-26 12:38:00,22.9,14.3,30.08,SE,138,3.0,7.0,69,0.00,,,0.00,WUHU216DAVISVP2,2013-01-26 18:38:00,
2013-01-26 12:43:00,23.1,14.2,30.07,SSE,155,4.0,8.0,68,0.00,,,0.00,WUHU216DAVISVP2,2013-01-26 18:43:00,
2013-01-26 12:48:00,23.3,14.4,30.07,SSE,150,4.0,8.0,68,0.00,,,0.00,WUHU216DAVISVP2,2013-01-26 18:48:00,
2013-01-26 12:53:00,23.7,15.1,30.07,SSE,149,5.0,8.0,69,0.00,,,0.00,WUHU216DAVISVP2,2013-01-26 18:53:00,
2013-01-26 12:58:00,24.1,15.5,30.07,SSE,148,3.0,8.0,69,0.00,,,0.00,WUHU216DAVISVP2,2013-01-26 18:58:00,
2013-01-26 13:00:00,24.2,15.5,30.06,SE,135,3.0,8.0,69,0.00,,,0.00,WUHU216DAVISVP2,2013-01-26 19:00:00,
2013-01-26 13:03:00,24.6,16.3,30.06,South,169,2.0,7.0,70,0.00,,,0.00,WUHU216DAVISVP2,2013-01-26 19:03:00,
2013-01-26 13:08:00,25.0,16.0,30.06,ESE,123,5.0,7.0,68,0.00,,,0.00,WUHU216DAVISVP2,2013-01-26 19:08:00,
2013-01-26 13:13:00,25.4,16.7,30.05,SSE,148,4.0,8.0,69,0.00,,,0.00,WUHU216DAVISVP2,2013-01-26 19:13:00,
2013-01-26 13:18:00,25.7,17.0,30.05,SE,144,2.0,8.0,69,0.00,,,0.00,WUHU216DAVISVP2,2013-01-26 19:18:00,
2013-01-26 13:23:00,25.8,16.8,30.04,SE,138,3.0,8.0,68,0.00,,,0.00,WUHU216DAVISVP2,2013-01-26 19:23:00,
2013-01-26 13:28:00,26.0,17.3,30.04,SE,146,2.0,8.0,69,0.00,,,0.00,WUHU216DAVISVP2,2013-01-26 19:28:00,
2013-01-26 13:30:00,26.0,17.2,30.04,SE,135,3.0,8.0,69,0.00,,,0.00,WUHU216DAVISVP2,2013-01-26 19:30:00,
2013-01-26 13:33:00,26.1,17.4,30.04,SSE,147,3.0,8.0,69,0.00,,,0.00,WUHU216DAVISVP2,2013-01-26 19:33:00,
2013-01-26 13:38:00,26.1,17.4,30.03,SSE,153,4.0,7.0,69,0.00,,,0.00,WUHU216DAVISVP2,2013-01-26 19:38:00,
2013-01-26 13:43:00,26.2,17.5,30.03,SE,142,4.0,7.0,69,0.00,,,0.00,WUHU216DAVISVP2,2013-01-26 19:43:00,
2013-01-26 13:48:00,26.3,17.5,30.03,SE,129,3.0,7.0,69,0.00,,,0.00,WUHU216DAVISVP2,2013-01-26 19:48:00,
2013-01-26 13:53:00,26.5,17.8,30.02,SE,138,3.0,7.0,69,0.00,,,0.00,WUHU216DAVISVP2,2013-01-26 19:53:00,
2013-01-26 13:58:00,26.7,18.3,30.02,South,180,2.0,7.0,70,0.00,,,0.00,WUHU216DAVISVP2,2013-01-26 19:58:00,
2013-01-26 14:00:00,26.8,18.0,30.02,SE,135,3.0,7.0,69,0.00,,,0.00,WUHU216DAVISVP2,2013-01-26 20:00:00,
2013-01-26 14:03:00,26.9,18.1,30.01,SE,139,3.0,7.0,69,0.00,,,0.00,WUHU216DAVISVP2,2013-01-26 20:03:00,
2013-01-26 14:08:00,27.1,18.3,30.01,SE,140,4.0,6.0,69,0.00,,,0.00,WUHU216DAVISVP2,2013-01-26 20:08:00,
2013-01-26 14:13:00,27.3,18.5,30.01,ESE,117,6.0,8.0,69,0.00,,,0.00,WUHU216DAVISVP2,2013-01-26 20:13:00,
2013-01-26 14:18:00,27.5,18.7,30.00,SE,146,4.0,8.0,69,0.00,,,0.00,WUHU216DAVISVP2,2013-01-26 20:18:00,
2013-01-26 14:23:00,27.7,18.8,30.00,SE,146,5.0,8.0,69,0.00,,,0.00,WUHU216DAVISVP2,2013-01-26 20:23:00,
2013-01-26 14:28:00,28.0,19.1,30.00,SSE,160,5.0,9.0,69,0.00,,,0.00,WUHU216DAVISVP2,2013-01-26 20:28:00,
2013-01-26 14:30:00,28.1,18.9,30.00,SE,135,3.0,9.0,68,0.00,,,0.00,WUHU216DAVISVP2,2013-01-26 20:30:00,
2013-01-26 14:33:00,28.3,19.1,30.00,SE,141,4.0,9.0,68,0.00,,,0.00,WUHU216DAVISVP2,2013-01-26 20:33:00,
2013-01-26 14:38:00,28.6,19.7,30.00,SE,138,3.0,9.0,69,0.00,,,0.00,WUHU216DAVISVP2,2013-01-26 20:38:00,
2013-01-26 14:43:00,28.9,20.0,30.00,SE,143,4.0,9.0,69,0.00,,,0.00,WUHU216DAVISVP2,2013-01-26 20:43:00,
2013-01-26 14:48:00,29.1,20.2,30.00,SSE,151,4.0,8.0,69,0.00,,,0.00,WUHU216DAVISVP2,2013-01-26 20:48:00,
2013-01-26 14:53:00,29.2,20.4,30.00,SSE,147,4.0,8.0,69,0.00,,,0.00,WUHU216DAVISVP2,2013-01-26 20:53:00,
2013-01-26 14:58:00,29.4,20.1,29.99,SSE,147,4.0,9.0,68,0.00,,,0.00,WUHU216DAVISVP2,2013-01-26 20:58:00,
2013-01-26 15:00:00,29.4,20.1,29.99,SE,135,4.0,9.0,68,0.00,,,0.00,WUHU216DAVISVP2,2013-01-26 21:00:00,
2013-01-26 15:03:00,29.5,20.6,29.99,SSW,198,4.0,9.0,69,0.00,,,0.00,WUHU216DAVISVP2,2013-01-26 21:03:00,
2013-01-26 15:08:00,29.7,20.4,29.98,SE,146,6.0,9.0,68,0.00,,,0.00,WUHU216DAVISVP2,2013-01-26 21:08:00,
2013-01-26 15:13:00,29.9,20.7,29.98,SE,136,1.0,9.0,68,0.00,,,0.00,WUHU216DAVISVP2,2013-01-26 21:13:00,
2013-01-26 15:18:00,30.2,21.0,29.98,ESE,118,3.0,7.0,68,0.00,,,0.00,WUHU216DAVISVP2,2013-01-26 21:18:00,
2013-01-26 15:23:00,30.4,21.2,29.99,SE,139,4.0,7.0,68,0.00,,,0.00,WUHU216DAVISVP2,2013-01-26 21:23:00,
2013-01-26 15:28:00,30.7,21.5,29.99,SE,139,3.0,6.0,68,0.00,,,0.00,WUHU216DAVISVP2,2013-01-26 21:28:00,
2013-01-26 15:30:00,30.8,21.5,29.98,SE,135,3.0,7.0,68,0.00,,,0.00,WUHU216DAVISVP2,2013-01-26 21:30:00,
2013-01-26 15:33:00,31.0,21.4,29.99,SE,131,3.0,6.0,67,0.00,,,0.00,WUHU216DAVISVP2,2013-01-26 21:33:00,
2013-01-26 15:38:00,31.4,21.8,29.99,SSE,161,5.0,6.0,67,0.00,,,0.00,WUHU216DAVISVP2,2013-01-26 21:38:00,
2013-01-26 15:43:00,31.5,21.9,29.99,SE,139,5.0,6.0,67,0.00,,,0.00,WUHU216DAVISVP2,2013-01-26 21:43:00,
2013-01-26 15:48:00,31.7,22.1,29.98,SE,142,3.0,6.0,67,0.00,,,0.00,WUHU216DAVISVP2,2013-01-26 21:48:00,
2013-01-26 15:53:00,31.9,22.3,29.98,ESE,122,3.0,7.0,67,0.00,,,0.00,WUHU216DAVISVP2,2013-01-26 21:53:00,
2013-01-26 15:58:00,32.3,22.3,29.98,SE,130,2.0,7.0,66,0.00,,,0.00,WUHU216DAVISVP2,2013-01-26 21:58:00,
2013-01-26 16:00:00,32.4,22.3,29.98,SE,135,3.0,7.0,66,0.00,,,0.00,WUHU216DAVISVP2,2013-01-26 22:00:00,
2013-01-26 16:03:00,32.6,22.9,29.98,SE,129,2.0,7.0,67,0.00,,,0.00,WUHU216DAVISVP2,2013-01-26 22:03:00,
2013-01-26 16:08:00,32.5,22.5,29.98,SSE,157,3.0,7.0,66,0.00,,,0.00,WUHU216DAVISVP2,2013-01-26 22:08:00,
2013-01-26 16:13:00,32.6,22.9,29.98,SSE,147,3.0,6.0,67,0.00,,,0.00,WUHU216DAVISVP2,2013-01-26 22:13:00,
2013-01-26 16:18:00,32.5,22.8,29.98,SE,143,3.0,6.0,67,0.00,,,0.00,WUHU216DAVISVP2,2013-01-26 22:18:00,
2013-01-26 16:23:00,32.3,23.0,29.98,SE,137,1.0,6.0,68,0.00,,,0.00,WUHU216DAVISVP2,2013-01-26 22:23:00,
2013-01-26 16:28:00,32.3,22.9,29.98,SE,134,1.0,5.0,68,0.00,,,0.00,WUHU216DAVISVP2,2013-01-26 22:28:00,
2013-01-26 16:30:00,32.2,22.8,29.98,SE,135,2.0,6.0,68,0.00,,,0.00,WUHU216DAVISVP2,2013-01-26 22:30:00,
2013-01-26 16:33:00,32.2,22.8,29.98,SE,134,1.0,4.0,68,0.00,,,0.00,WUHU216DAVISVP2,2013-01-26 22:33:00,
2013-01-26 16:38:00,32.1,23.1,29.98,SE,127,2.0,4.0,69,0.00,,,0.00,WUHU216DAVISVP2,2013-01-26 22:38:00,
2013-01-26 16:43:00,31.9,22.9,29.98,ESE,106,0.0,3.0,69,0.00,,,0.00,WUHU216DAVISVP2,2013-01-26 22:43:00,
2013-01-26 16:48:00,31.8,22.8,29.98,SE,146,1.0,3.0,69,0.00,,,0.00,WUHU216DAVISVP2,2013-01-26 22:48:00,
2013-01-26 16:53:00,31.8,23.2,29.98,ESE,114,0.0,3.0,70,0.00,,,0.00,WUHU216DAVISVP2,2013-01-26 22:53:00,
2013-01-26 16:58:00,31.9,23.6,29.98,SE,124,0.0,3.0,71,0.00,,,0.00,WUHU216DAVISVP2,2013-01-26 22:58:00,
2013-01-26 17:00:00,31.9,23.6,29.97,SE,135,1.0,3.0,71,0.00,,,0.00,WUHU216DAVISVP2,2013-01-26 23:00:00,
2013-01-26 17:03:00,32.0,23.7,29.97,SE,125,1.0,2.0,71,0.00,,,0.00,WUHU216DAVISVP2,2013-01-26 23:03:00,
2013-01-26 17:08:00,32.1,23.8,29.97,SE,131,1.0,2.0,71,0.00,,,0.00,WUHU216DAVISVP2,2013-01-26 23:08:00,
2013-01-26 17:13:00,32.2,23.9,29.97,SE,135,1.0,3.0,71,0.00,,,0.00,WUHU216DAVISVP2,2013-01-26 23:13:00,
2013-01-26 17:18:00,32.3,24.0,29.97,SE,130,1.0,3.0,71,0.00,,,0.00,WUHU216DAVISVP2,2013-01-26 23:18:00,
2013-01-26 17:23:00,32.3,24.0,29.97,SE,128,1.0,3.0,71,0.00,,,0.00,WUHU216DAVISVP2,2013-01-26 23:23:00,
2013-01-26 17:28:00,32.3,24.0,29.97,ESE,117,0.0,3.0,71,0.00,,,0.00,WUHU216DAVISVP2,2013-01-26 23:28:00,
2013-01-26 17:30:00,32.3,23.9,29.97,SE,135,1.0,3.0,71,0.00,,,0.00,WUHU216DAVISVP2,2013-01-26 23:30:00,
2013-01-26 17:33:00,32.4,24.1,29.97,ESE,105,1.0,3.0,71,0.00,,,0.00,WUHU216DAVISVP2,2013-01-26 23:33:00,
2013-01-26 17:38:00,32.5,24.2,29.97,SE,127,1.0,2.0,71,0.00,,,0.00,WUHU216DAVISVP2,2013-01-26 23:38:00,
2013-01-26 17:43:00,32.7,24.4,29.97,SE,136,1.0,2.0,71,0.00,,,0.00,WUHU216DAVISVP2,2013-01-26 23:43:00,
2013-01-26 17:48:00,32.8,24.5,29.97,SE,134,1.0,2.0,71,0.00,,,0.00,WUHU216DAVISVP2,2013-01-26 23:48:00,
2013-01-26 17:53:00,32.9,24.6,29.97,ESE,113,0.0,2.0,71,0.00,,,0.00,WUHU216DAVISVP2,2013-01-26 23:53:00,
2013-01-26 17:58:00,32.9,24.6,29.97,SE,141,0.0,2.0,71,0.00,,,0.00,WUHU216DAVISVP2,2013-01-26 23:58:00,
2013-01-26 18:00:00,32.9,24.5,29.97,SE,135,1.0,2.0,71,0.00,,,0.00,WUHU216DAVISVP2,2013-01-27 00:00:00,
2013-01-26 18:03:00,32.9,24.6,29.97,SSE,160,1.0,2.0,71,0.00,,,0.00,WUHU216DAVISVP2,2013-01-27 00:03:00,
2013-01-26 18:08:00,32.9,24.6,29.97,SSE,155,0.0,1.0,71,0.00,,,0.00,WUHU216DAVISVP2,2013-01-27 00:08:00,
2013-01-26 18:13:00,33.0,24.7,29.97,ESE,110,0.0,1.0,71,0.00,,,0.00,WUHU216DAVISVP2,2013-01-27 00:13:00,
2013-01-26 18:18:00,33.0,24.7,29.97,SE,131,0.0,1.0,71,0.00,,,0.00,WUHU216DAVISVP2,2013-01-27 00:18:00,
2013-01-26 18:23:00,32.9,24.6,29.97,SE,138,1.0,2.0,71,0.00,,,0.00,WUHU216DAVISVP2,2013-01-27 00:23:00,
2013-01-26 18:28:00,33.0,25.0,29.97,ESE,106,1.0,2.0,72,0.00,,,0.00,WUHU216DAVISVP2,2013-01-27 00:28:00,
2013-01-26 18:30:00,33.0,24.6,29.97,SE,135,0.0,2.0,71,0.00,,,0.00,WUHU216DAVISVP2,2013-01-27 00:30:00,
2013-01-26 18:33:00,33.1,24.8,29.97,SE,146,2.0,4.0,71,0.00,,,0.00,WUHU216DAVISVP2,2013-01-27 00:33:00,
2013-01-26 18:38:00,33.2,24.9,29.97,SE,136,2.0,4.0,71,0.00,,,0.00,WUHU216DAVISVP2,2013-01-27 00:38:00,
2013-01-26 18:43:00,33.1,24.8,29.97,SE,141,1.0,4.0,71,0.00,,,0.00,WUHU216DAVISVP2,2013-01-27 00:43:00,
2013-01-26 18:48:00,32.9,24.9,29.97,SE,133,1.0,4.0,72,0.00,,,0.00,WUHU216DAVISVP2,2013-01-27 00:48:00,
2013-01-26 18:53:00,32.8,24.8,29.97,SE,134,2.0,3.0,72,0.00,,,0.00,WUHU216DAVISVP2,2013-01-27 00:53:00,
2013-01-26 18:58:00,32.7,24.7,29.97,ESE,113,2.0,3.0,72,0.00,,,0.00,WUHU216DAVISVP2,2013-01-27 00:58:00,
2013-01-26 19:00:00,32.6,24.6,29.97,SE,135,1.0,4.0,72,0.00,,,0.00,WUHU216DAVISVP2,2013-01-27 01:00:00,
2013-01-26 19:03:00,32.6,24.6,29.97,SE,132,1.0,3.0,72,0.00,,,0.00,WUHU216DAVISVP2,2013-01-27 01:03:00,
2013-01-26 19:08:00,32.5,24.5,29.97,SE,137,1.0,3.0,72,0.00,,,0.00,WUHU216DAVISVP2,2013-01-27 01:08:00,
2013-01-26 19:13:00,32.3,24.3,29.98,SE,136,1.0,3.0,72,0.00,,,0.00,WUHU216DAVISVP2,2013-01-27 01:13:00,
2013-01-26 19:18:00,32.2,24.6,29.98,SSE,150,1.0,3.0,73,0.00,,,0.00,WUHU216DAVISVP2,2013-01-27 01:18:00,
2013-01-26 19:23:00,32.1,24.5,29.98,SE,136,1.0,3.0,73,0.00,,,0.00,WUHU216DAVISVP2,2013-01-27 01:23:00,
2013-01-26 19:28:00,32.0,24.4,29.98,SE,128,2.0,2.0,73,0.00,,,0.00,WUHU216DAVISVP2,2013-01-27 01:28:00,
2013-01-26 19:30:00,32.0,24.3,29.98,SE,135,1.0,3.0,73,0.00,,,0.00,WUHU216DAVISVP2,2013-01-27 01:30:00,
2013-01-26 19:33:00,31.9,24.3,29.98,SE,133,1.0,2.0,73,0.00,,,0.00,WUHU216DAVISVP2,2013-01-27 01:33:00,
2013-01-26 19:38:00,32.0,24.4,29.98,SE,129,1.0,3.0,73,0.00,,,0.00,WUHU216DAVISVP2,2013-01-27 01:38:00,
2013-01-26 19:43:00,31.9,24.3,29.98,SE,128,1.0,3.0,73,0.00,,,0.00,WUHU216DAVISVP2,2013-01-27 01:43:00,
2013-01-26 19:48:00,31.8,24.2,29.98,SE,129,1.0,3.0,73,0.00,,,0.00,WUHU216DAVISVP2,2013-01-27 01:48:00,
2013-01-26 19:53:00,31.8,24.2,29.98,SE,137,1.0,3.0,73,0.00,,,0.00,WUHU216DAVISVP2,2013-01-27 01:53:00,
2013-01-26 19:58:00,31.8,24.2,29.98,SE,136,1.0,2.0,73,0.00,,,0.00,WUHU216DAVISVP2,2013-01-27 01:58:00,
2013-01-26 20:00:00,31.8,24.1,29.98,SE,135,1.0,3.0,73,0.00,,,0.00,WUHU216DAVISVP2,2013-01-27 02:00:00,
2013-01-26 20:03:00,31.8,24.2,29.98,ESE,120,1.0,3.0,73,0.00,,,0.00,WUHU216DAVISVP2,2013-01-27 02:03:00,
2013-01-26 20:08:00,31.9,24.3,29.98,SSE,159,2.0,3.0,73,0.00,,,0.00,WUHU216DAVISVP2,2013-01-27 02:08:00,
2013-01-26 20:13:00,31.8,24.2,29.98,SE,144,1.0,3.0,73,0.00,,,0.00,WUHU216DAVISVP2,2013-01-27 02:13:00,
2013-01-26 20:18:00,31.8,24.2,29.98,ESE,117,1.0,3.0,73,0.00,,,0.00,WUHU216DAVISVP2,2013-01-27 02:18:00,
2013-01-26 20:23:00,31.8,24.2,29.98,SE,137,1.0,3.0,73,0.00,,,0.00,WUHU216DAVISVP2,2013-01-27 02:23:00,
2013-01-26 20:28:00,31.8,24.2,29.97,SE,136,1.0,3.0,73,0.00,,,0.00,WUHU216DAVISVP2,2013-01-27 02:28:00,
2013-01-26 20:30:00,31.8,24.1,29.97,SE,135,1.0,3.0,73,0.00,,,0.00,WUHU216DAVISVP2,2013-01-27 02:30:00,
2013-01-26 20:33:00,31.8,24.2,29.97,SE,124,1.0,3.0,73,0.00,,,0.00,WUHU216DAVISVP2,2013-01-27 02:33:00,
2013-01-26 20:38:00,31.8,24.2,29.97,SE,133,2.0,4.0,73,0.00,,,0.00,WUHU216DAVISVP2,2013-01-27 02:38:00,
2013-01-26 20:43:00,31.7,24.1,29.97,SE,124,1.0,4.0,73,0.00,,,0.00,WUHU216DAVISVP2,2013-01-27 02:43:00,
2013-01-26 20:48:00,31.7,23.8,29.97,SE,129,1.0,4.0,72,0.00,,,0.00,WUHU216DAVISVP2,2013-01-27 02:48:00,
2013-01-26 20:53:00,31.6,23.7,29.97,SE,136,1.0,4.0,72,0.00,,,0.00,WUHU216DAVISVP2,2013-01-27 02:53:00,
2013-01-26 20:58:00,31.5,23.6,29.97,ESE,123,2.0,3.0,72,0.00,,,0.00,WUHU216DAVISVP2,2013-01-27 02:58:00,
2013-01-26 21:00:00,31.5,23.5,29.97,SE,135,1.0,4.0,72,0.00,,,0.00,WUHU216DAVISVP2,2013-01-27 03:00:00,
2013-01-26 21:03:00,31.4,23.4,29.97,SE,146,1.0,3.0,72,0.00,,,0.00,WUHU216DAVISVP2,2013-01-27 03:03:00,
2013-01-26 21:08:00,31.3,23.4,29.97,SE,137,1.0,3.0,72,0.00,,,0.00,WUHU216DAVISVP2,2013-01-27 03:08:00,
2013-01-26 21:13:00,31.1,23.5,29.96,SE,136,1.0,3.0,73,0.00,,,0.00,WUHU216DAVISVP2,2013-01-27 03:13:00,
2013-01-26 21:18:00,31.0,23.4,29.96,SE,138,1.0,3.0,73,0.00,,,0.00,WUHU216DAVISVP2,2013-01-27 03:18:00,
2013-01-26 21:23:00,31.0,23.4,29.96,SE,128,2.0,3.0,73,0.00,,,0.00,WUHU216DAVISVP2,2013-01-27 03:23:00,
2013-01-26 21:28:00,31.0,23.4,29.96,SE,128,1.0,3.0,73,0.00,,,0.00,WUHU216DAVISVP2,2013-01-27 03:28:00,
2013-01-26 21:30:00,31.0,23.4,29.96,SE,135,1.0,3.0,73,0.00,,,0.00,WUHU216DAVISVP2,2013-01-27 03:30:00,
2013-01-26 21:33:00,31.1,23.5,29.96,SE,146,1.0,3.0,73,0.00,,,0.00,WUHU216DAVISVP2,2013-01-27 03:33:00,
2013-01-26 21:38:00,31.1,23.5,29.96,SE,134,1.0,3.0,73,0.00,,,0.00,WUHU216DAVISVP2,2013-01-27 03:38:00,
2013-01-26 21:43:00,31.1,23.5,29.96,SE,136,1.0,2.0,73,0.00,,,0.00,WUHU216DAVISVP2,2013-01-27 03:43:00,
2013-01-26 21:48:00,31.1,23.5,29.96,ESE,117,3.0,3.0,73,0.00,,,0.00,WUHU216DAVISVP2,2013-01-27 03:48:00,
2013-01-26 21:53:00,31.1,23.1,29.96,SE,132,1.0,3.0,72,0.00,,,0.00,WUHU216DAVISVP2,2013-01-27 03:53:00,
2013-01-26 21:58:00,31.0,23.4,29.95,SE,139,1.0,3.0,73,0.00,,,0.00,WUHU216DAVISVP2,2013-01-27 03:58:00,
2013-01-26 22:00:00,30.9,23.3,29.95,SE,135,1.0,3.0,73,0.00,,,0.00,WUHU216DAVISVP2,2013-01-27 04:00:00,
2013-01-26 22:03:00,30.9,23.3,29.95,SE,131,1.0,3.0,73,0.00,,,0.00,WUHU216DAVISVP2,2013-01-27 04:03:00,
2013-01-26 22:08:00,30.8,23.2,29.95,SSE,150,2.0,3.0,73,0.00,,,0.00,WUHU216DAVISVP2,2013-01-27 04:08:00,
2013-01-26 22:13:00,30.6,23.0,29.95,SE,127,1.0,3.0,73,0.00,,,0.00,WUHU216DAVISVP2,2013-01-27 04:13:00,
2013-01-26 22:18:00,30.5,23.2,29.95,ESE,115,1.0,2.0,74,0.00,,,0.00,WUHU216DAVISVP2,2013-01-27 04:18:00,
2013-01-26 22:23:00,30.6,23.3,29.95,SE,146,1.0,3.0,74,0.00,,,0.00,WUHU216DAVISVP2,2013-01-27 04:23:00,
2013-01-26 22:28:00,30.6,23.3,29.95,SE,139,2.0,4.0,74,0.00,,,0.00,WUHU216DAVISVP2,2013-01-27 04:28:00,
2013-01-26 22:30:00,30.6,23.3,29.95,SE,135,1.0,4.0,74,0.00,,,0.00,WUHU216DAVISVP2,2013-01-27 04:30:00,
2013-01-26 22:33:00,30.7,23.4,29.95,SE,134,1.0,4.0,74,0.00,,,0.00,WUHU216DAVISVP2,2013-01-27 04:33:00,
2013-01-26 22:38:00,30.6,23.3,29.96,SE,145,2.0,4.0,74,0.00,,,0.00,WUHU216DAVISVP2,2013-01-27 04:38:00,
2013-01-26 22:43:00,30.7,23.4,29.95,SE,141,2.0,4.0,74,0.00,,,0.00,WUHU216DAVISVP2,2013-01-27 04:43:00,
2013-01-26 22:48:00,30.7,23.4,29.96,SE,136,1.0,3.0,74,0.00,,,0.00,WUHU216DAVISVP2,2013-01-27 04:48:00,
2013-01-26 22:53:00,30.8,23.5,29.95,SE,134,1.0,3.0,74,0.00,,,0.00,WUHU216DAVISVP2,2013-01-27 04:53:00,
2013-01-26 22:58:00,31.0,23.7,29.96,SE,134,1.0,3.0,74,0.00,,,0.00,WUHU216DAVISVP2,2013-01-27 04:58:00,
2013-01-26 23:00:00,31.0,23.7,29.96,SE,129,2.0,3.0,74,0.00,,,0.00,WUHU216DAVISVP2,2013-01-27 05:00:00,
2013-01-26 23:01:00,31.0,23.7,29.96,SSE,159,2.0,3.0,74,0.00,,,0.00,WUHU216DAVISVP2,2013-01-27 05:01:00,
2013-01-26 23:02:00,31.1,23.8,29.96,SSE,151,1.0,3.0,74,0.00,,,0.00,WUHU216DAVISVP2,2013-01-27 05:02:00,
2013-01-26 23:07:00,31.1,23.8,29.96,SSE,150,1.0,3.0,74,0.00,,,0.00,WUHU216DAVISVP2,2013-01-27 05:07:00,
2013-01-26 23:12:00,31.1,23.8,29.96,SE,133,1.0,3.0,74,0.00,,,0.00,WUHU216DAVISVP2,2013-01-27 05:12:00,
2013-01-26 23:17:00,31.2,23.9,29.96,SE,135,2.0,3.0,74,0.00,,,0.00,WUHU216DAVISVP2,2013-01-27 05:17:00,
2013-01-26 23:22:00,31.3,24.0,29.96,SE,131,2.0,3.0,74,0.00,,,0.00,WUHU216DAVISVP2,2013-01-27 05:22:00,
2013-01-26 23:27:00,31.3,24.0,29.95,SE,134,2.0,3.0,74,0.00,,,0.00,WUHU216DAVISVP2,2013-01-27 05:27:00,
2013-01-26 23:30:00,31.3,24.0,29.95,SE,135,2.0,3.0,74,0.00,,,0.00,WUHU216DAVISVP2,2013-01-27 05:30:00,
2013-01-26 23:32:00,31.3,24.0,29.95,SSE,152,3.0,4.0,74,0.00,,,0.00,WUHU216DAVISVP2,2013-01-27 05:32:00,
2013-01-26 23:37:00,31.5,24.2,29.95,SE,141,2.0,4.0,74,0.00,,,0.00,WUHU216DAVISVP2,2013-01-27 05:37:00,
2013-01-26 23:42:00,31.4,24.1,29.95,SE,140,3.0,4.0,74,0.00,,,0.00,WUHU216DAVISVP2,2013-01-27 05:42:00,
2013-01-26 23:47:00,31.4,24.1,29.95,SE,140,1.0,4.0,74,0.00,,,0.00,WUHU216DAVISVP2,2013-01-27 05:47:00,
2013-01-26 23:52:00,31.4,24.1,29.95,SE,142,1.0,3.0,74,0.00,,,0.00,WUHU216DAVISVP2,2013-01-27 05:52:00,
2013-01-26 23:57:00,31.4,24.1,29.95,SE,138,1.0,3.0,74,0.00,,,0.00,WUHU216DAVISVP2,2013-01-27 05:57:00,